Wind_Speed
17 17 19 22 23 24 26 27 26 23 18 14 13 11 8 9 11 12 11 4 9 11 9 5 4 6 9 13 16 21 29 30 31 27 26 29 31 26 24 24 21 22 24 27 27 30 32
8 8 10 10 8 5 3 3 4 3 3 5 4 2 4 6 8 11 18 16 14 9 5 5 8 12 16 18 24 26 28 29 30 28 30 30 30 30 27 29 29 29 31 30 32 35 36
5 4 1 3 5 8 9 12 9 9 9 8 9 4 5 8 12 17 14 12 14 10 13 17 24 26 24 25 25 27 31 32 35 32 35 30 30 28 29 29 31 33 35 35 36 37 39
3 6 8 13 16 19 20 17 20 21 21 22 28 15 9 12 13 13 20 20 17 24 18 14 27 29 28 24 24 28 28 29 31 31 34 32 30 30 26 30 33 34 34 32 34 37 38
9 13 12 11 10 9 11 13 13 14 15 15 18 18 12 12 18 17 18 18 17 20 17 16 23 26 24 25 25 24 29 32 31 32 29 27 25 22 25 30 30 31 34 38 39 41 42
13 8 7 2 4 1 4 6 9 13 13 12 14 15 14 13 15 15 19 17 18 23 22 21 25 26 26 22 23 30 35 31 28 30 27 35 27 22 23 30 33 34 36 39 39 40 39
13 10 8 5 4 8 9 8 9 11 15 14 10 14 15 17 19 14 19 16 20 23 23 24 25 25 24 26 32 32 36 38 37 36 31 35 35 35 29 25 25 31 36 42 46 46 47
14 13 11 8 9 10 13 14 15 17 14 18 10 14 14 16 21 18 21 22 23 25 28 31 28 27 29 31 35 36 37 40 42 41 39 35 36 38 38 34 35 36 41 42 44 42 42
21 20 20 17 16 16 19 19 16 17 18 20 13 17 17 14 20 17 20 20 24 30 31 32 29 30 33 34 38 41 44 45 47 45 42 38 39 39 38 41 42 39 40 44 48 55 57
27 27 26 26 27 25 24 19 18 18 17 17 19 24 22 20 17 19 22 22 26 32 31 33 32 34 40 42 44 46 47 50 50 47 46 46 46 43 44 46 49 53 54 52 52 54 57
34 34 32 30 30 27 26 23 24 21 20 18 21 19 14 18 15 23 24 25 28 36 38 36 38 39 41 45 48 48 52 52 52 51 49 50 51 47 48 48 57 59 57 60 60 64 60
44 41 38 37 36 32 32 28 25 23 21 20 22 17 18 24 23 25 28 29 33 38 38 40 39 43 45 48 50 50 50 53 54 52 52 58 53 55 56 56 57 62 65 67 64 66 64
50 48 44 43 42 37 35 34 32 27 28 26 27 27 28 29 29 29 29 32 35 40 41 43 45 47 49 54 56 53 52 52 52 52 55 58 59 59 60 64 64 66 71 74 72 74 70
57 56 53 49 46 46 43 40 37 35 33 32 35 35 36 33 31 29 34 38 40 43 46 48 50 54 57 58 58 58 54 55 56 58 58 61 59 64 65 67 70 73 79 84 85 82 78
59 61 60 57 56 50 48 44 43 41 39 40 40 42 40 37 41 42 43 46 48 47 50 52 55 58 58 59 61 59 58 56 58 61 66 66 64 68 68 73 77 77 82 86 89 88 87
64 60 59 63 63 60 53 49 48 47 48 47 46 47 46 47 49 49 51 52 54 54 58 60 62 63 61 64 66 63 63 62 68 67 74 69 73 73 74 79 81 84 87 88 91 95 90
66 63 60 57 61 62 61 55 52 52 53 53 53 51 51 51 52 52 56 58 59 60 62 65 66 68 68 71 70 65 66 71 71 73 78 78 77 76 82 87 87 86 89 90 93 96 97
70 66 63 62 61 62 64 61 58 57 57 56 58 56 57 57 60 62 64 65 65 69 71 69 67 70 73 74 75 75 74 77 78 79 83 81 83 85 89 87 87 91 92 93 95 97 99
73 71 70 69 66 67 67 67 64 63 63 62 61 63 64 65 65 67 69 71 73 74 74 73 74 72 74 75 82 83 87 88 88 86 84 88 89 86 88 93 95 93 95 94 100 103 103
74 77 74 73 72 73 72 72 70 70 72 70 69 68 69 71 70 73 75 75 76 77 77 77 76 77 78 82 88 92 93 88 88 92 92 92 91 91 97 101 98 98 96 98 103 109 104
77 80 81 79 81 81 80 81 79 78 76 78 75 74 75 76 78 81 81 80 84 87 87 86 86 86 88 88 93 96 90 85 88 93 95 96 97 101 103 100 98 96 96 102 111 108 107
80 81 86 88 86 90 86 84 86 87 85 83 84 85 85 85 87 87 87 85 85 83 87 92 94 94 97 96 99 95 91 91 92 95 97 103 104 103 98 98 102 100 102 109 110 111 114
75 78 84 88 91 91 90 94 93 94 93 92 92 90 93 92 92 93 94 95 97 98 98 98 99 99 101 99 97 98 98 98 93 102 103 104 104 101 99 102 100 100 107 107 110 115 120
76 73 78 83 88 88 88 85 85 91 94 94 96 99 98 97 99 99 99 100 100 98 98 99 100 99 98 98 100 105 101 92 98 108 108 107 102 103 104 103 103 107 106 109 113 120 124
81 82 78 78 77 78 76 77 77 77 81 84 87 90 92 94 97 100 98 98 101 100 100 96 95 99 101 104 105 93 91 102 109 108 105 103 106 108 103 104 109 109 112 116 119 122 129
89 88 86 86 84 81 78 78 78 76 80 84 87 90 87 91 95 95 92 93 96 102 100 101 100 103 104 103 94 90 105 113 111 108 108 109 107 105 108 112 115 115 114 117 122 126 136
96 95 97 92 89 91 90 86 83 84 86 85 85 88 89 92 94 96 95 98 100 104 105 105 104 107 104 104 101 109 112 114 112 112 115 111 108 106 110 117 121 118 119 126 129 131 124
100 101 100 98 97 97 101 95 91 91 97 95 89 90 90 90 95 95 98 100 101 102 105 107 109 111 111 108 103 115 115 118 113 111 110 107 106 110 116 120 117 121 127 129 129 123 118
99 100 98 100 103 105 104 106 97 99 104 102 100 96 93 94 96 99 102 105 106 108 109 110 111 115 115 117 115 115 114 102 101 102 104 103 110 114 116 113 121 126 129 127 120 117 111
Wind_Direction
252 255 262 269 271 277 280 284 285 285 286 288 295 296 304 307 303 295 295 331 92 88 81 78 44 358 348 348 349 353 348 346 341 332 327 322 320 316 310 307 304 303 298 292 290 289 291
237 247 252 261 275 289 304 344 3 15 315 289 258 333 44 34 37 82 98 82 50 46 54 8 337 326 327 326 341 337 334 325 317 311 310 309 307 308 305 303 303 297 298 296 291 287 291
132 163 161 51 63 59 45 48 48 27 14 359 324 333 32 72 87 87 66 45 37 27 19 16 21 5 346 334 330 324 316 311 310 304 307 303 300 300 302 302 301 294 295 295 290 287 290
71 100 93 78 97 75 80 61 64 71 49 52 57 52 13 30 85 53 29 36 38 30 25 32 360 6 3 353 344 338 333 344 336 324 308 302 307 307 303 301 293 290 292 289 290 293 296
129 118 104 82 94 75 66 51 45 44 45 46 33 41 32 49 32 41 34 29 26 20 20 359 1 7 4 358 352 353 347 346 343 326 336 343 333 316 308 302 301 307 306 303 301 302 300
154 158 149 145 129 125 27 18 15 14 20 21 27 25 29 11 359 25 25 22 10 8 13 12 7 0 359 5 357 354 353 344 345 353 344 350 356 344 328 316 303 297 296 296 295 298 297
190 233 233 246 261 278 303 331 335 349 342 340 347 357 6 357 344 351 5 4 359 0 5 3 357 358 356 351 348 345 352 353 346 344 342 346 349 344 331 318 317 308 303 295 291 292 292
242 256 252 259 271 278 275 290 293 302 326 319 332 343 339 342 320 328 347 346 353 359 356 352 348 347 346 347 346 342 344 345 345 347 343 339 338 337 329 321 305 296 291 292 295 296 297
237 245 255 259 265 272 279 282 288 297 299 294 290 318 320 322 319 327 327 333 347 348 346 347 343 341 342 342 341 341 342 339 341 339 338 331 328 331 323 318 308 302 294 288 287 286 288
251 256 256 260 266 270 279 277 270 273 274 281 280 302 306 313 308 323 324 327 332 338 341 342 336 338 338 336 336 334 337 337 334 333 332 330 326 314 306 306 305 306 303 297 296 291 287
250 255 263 266 266 271 270 279 283 284 290 275 283 300 318 319 308 322 329 321 322 328 333 333 330 328 330 332 332 332 332 333 332 327 329 329 322 314 305 304 294 295 298 300 298 293 296
253 254 260 269 272 265 269 273 273 274 276 285 295 290 307 311 307 314 320 313 313 321 325 324 325 326 325 324 324 325 324 328 328 322 320 325 320 312 306 299 294 295 298 298 298 296 296
255 255 256 263 268 267 266 269 269 269 276 281 290 301 304 305 304 309 310 313 309 315 318 318 319 319 320 319 319 320 318 320 319 315 316 321 314 309 307 300 298 297 298 300 297 298 297
253 255 255 260 263 265 268 267 268 272 276 280 289 294 299 297 298 295 302 306 306 308 313 313 314 314 316 317 318 318 317 322 315 314 314 316 310 310 304 301 302 303 302 300 299 298 297
255 257 256 258 262 261 266 265 267 273 275 280 284 288 291 292 293 297 299 300 305 304 307 309 310 313 314 314 316 316 314 318 311 310 313 311 309 309 304 302 302 299 298 298 299 300 297
255 257 258 254 258 258 261 262 266 270 276 280 282 286 286 289 293 295 296 297 298 300 301 303 306 308 310 311 313 317 315 316 314 312 315 311 310 305 303 305 302 300 300 298 298 301 300
255 256 254 256 258 259 260 261 265 271 274 277 280 283 282 286 290 293 294 294 297 299 299 300 303 305 309 312 314 314 314 315 314 312 314 312 309 308 303 304 302 303 301 297 298 303 302
256 254 251 257 258 259 258 259 263 267 268 271 275 277 282 285 288 290 293 295 296 296 297 301 304 307 310 311 312 312 310 310 312 312 312 310 310 307 304 303 301 302 302 299 301 304 304
254 254 251 253 255 257 259 260 263 266 267 268 271 275 279 281 284 287 290 293 294 294 297 302 303 304 305 307 309 309 309 309 310 311 309 308 308 306 305 305 303 301 303 300 302 305 307
252 252 253 251 256 257 258 259 264 266 265 267 271 276 279 281 284 288 291 291 291 293 297 299 300 301 305 308 306 306 308 310 309 307 309 308 312 306 306 308 305 302 304 303 304 306 306
254 254 254 251 252 256 258 258 262 264 265 268 270 273 278 281 285 286 288 289 291 293 296 295 299 300 304 302 304 307 309 307 307 307 309 311 309 307 307 307 306 305 304 305 308 309 310
250 254 254 254 255 256 258 259 260 263 266 270 267 272 277 281 285 286 288 290 292 293 296 297 297 297 300 300 305 307 308 307 308 308 306 304 305 306 307 306 307 306 305 305 309 310 311
246 250 253 255 257 258 261 263 263 263 263 266 271 274 278 279 281 283 286 289 290 291 291 291 295 298 300 301 304 305 308 306 305 304 305 305 307 307 308 306 306 306 306 308 311 312 312
245 248 250 252 254 256 259 263 266 268 269 266 267 271 274 277 278 281 283 285 286 287 290 293 296 298 300 303 304 306 306 303 302 306 305 308 308 306 306 306 307 309 311 311 311 313 313
248 249 247 250 253 256 258 260 261 267 273 275 274 274 275 275 277 279 281 285 288 290 292 296 299 300 301 303 305 303 299 301 303 308 310 310 309 307 305 306 309 313 312 312 314 315 314
246 250 252 254 254 255 260 260 263 266 273 274 276 278 281 284 285 288 291 291 292 294 296 297 298 299 300 302 302 294 300 302 306 309 308 308 307 307 306 307 311 316 312 315 314 315 313
245 247 253 254 257 258 259 259 261 263 272 272 273 277 280 283 284 286 288 289 290 292 293 296 295 296 298 299 297 297 300 302 304 303 305 305 305 304 305 308 312 313 315 315 315 313 312
243 248 250 254 256 259 260 260 262 263 266 269 273 274 275 280 283 283 283 285 287 289 291 293 292 294 295 297 294 298 301 304 304 304 304 304 304 305 308 310 313 316 316 315 314 313 313
242 246 249 253 257 258 261 260 264 265 267 269 271 273 276 277 281 283 284 285 286 288 290 291 292 292 295 296 299 300 305 305 304 304 304 303 306 309 310 314 316 316 315 313 313 313 313
Height
10754 10755 10756 10757 10757 10757 10757 10756 10755 10754 10753 10753 10753 10752 10751 10748 10746 10746 10746 10748 10749 10749 10748 10749 10749 10749 10749 10748 10746 10744 10743 10741 10739 10737 10734 10732 10730 10728 10726 10723 10721 10718 10716 10714 10712 10708 10705
10752 10754 10754 10755 10755 10755 10755 10754 10753 10753 10752 10752 10751 10752 10750 10748 10746 10745 10747 10748 10749 10749 10749 10749 10750 10749 10748 10746 10744 10742 10740 10738 10735 10732 10729 10727 10725 10722 10719 10717 10715 10712 10709 10707 10704 10701 10699
10753 10754 10755 10756 10756 10756 10756 10756 10755 10755 10755 10755 10754 10753 10752 10750 10749 10749 10749 10749 10749 10749 10750 10750 10750 10748 10746 10744 10741 10739 10735 10732 10729 10725 10722 10719 10717 10715 10712 10710 10708 10705 10702 10699 10697 10694 10691
10754 10755 10757 10758 10757 10756 10757 10757 10756 10756 10756 10756 10754 10752 10752 10751 10751 10750 10750 10749 10747 10748 10747 10747 10746 10744 10742 10740 10737 10734 10731 10728 10723 10719 10715 10713 10711 10708 10705 10703 10700 10697 10693 10692 10689 10687 10683
10755 10756 10758 10758 10757 10757 10758 10758 10757 10757 10757 10756 10755 10754 10753 10753 10752 10750 10748 10747 10747 10746 10746 10745 10743 10741 10738 10736 10733 10730 10727 10724 10719 10715 10712 10708 10704 10702 10700 10698 10694 10691 10687 10682 10681 10679 10675
10755 10756 10757 10758 10758 10757 10757 10757 10757 10757 10757 10756 10756 10754 10753 10751 10749 10748 10746 10745 10745 10743 10742 10740 10739 10737 10734 10732 10730 10727 10724 10721 10717 10714 10711 10706 10702 10699 10695 10691 10687 10683 10678 10673 10670 10669 10664
10755 10756 10756 10756 10757 10757 10756 10755 10755 10754 10754 10753 10753 10752 10751 10748 10745 10744 10744 10743 10742 10740 10739 10736 10734 10733 10730 10728 10726 10723 10720 10717 10713 10710 10706 10701 10698 10694 10690 10685 10681 10677 10672 10664 10660 10659 10656
10751 10752 10753 10753 10754 10753 10754 10753 10752 10752 10752 10750 10749 10748 10747 10745 10743 10742 10741 10740 10738 10736 10734 10732 10730 10728 10726 10723 10720 10718 10715 10712 10708 10703 10699 10694 10690 10686 10682 10678 10675 10670 10664 10657 10651 10648 10645
10747 10748 10749 10750 10750 10751 10751 10750 10749 10749 10748 10748 10746 10745 10743 10742 10740 10739 10738 10736 10734 10732 10730 10728 10725 10722 10719 10716 10714 10710 10706 10703 10699 10695 10691 10685 10680 10676 10673 10668 10664 10659 10654 10647 10641 10634 10629
10741 10743 10744 10745 10745 10746 10745 10745 10744 10744 10743 10743 10742 10741 10739 10738 10736 10735 10733 10731 10729 10727 10725 10722 10718 10717 10713 10709 10705 10702 10698 10694 10690 10685 10681 10676 10671 10665 10661 10657 10652 10646 10641 10636 10630 10624 10617
10735 10737 10738 10738 10739 10740 10740 10740 10740 10739 10739 10738 10737 10736 10734 10733 10732 10730 10728 10725 10723 10721 10720 10716 10713 10708 10705 10701 10697 10693 10689 10685 10680 10674 10671 10667 10659 10653 10647 10643 10637 10632 10624 10619 10612 10607 10603
10726 10727 10729 10730 10731 10732 10733 10733 10734 10733 10733 10732 10731 10729 10728 10727 10725 10723 10721 10719 10716 10713 10712 10708 10705 10701 10697 10693 10688 10683 10678 10673 10668 10663 10658 10654 10648 10641 10633 10626 10619 10613 10606 10601 10595 10587 10586
10717 10719 10720 10722 10724 10725 10725 10725 10726 10725 10725 10725 10724 10723 10721 10720 10718 10716 10714 10712 10709 10706 10704 10700 10696 10692 10688 10684 10678 10672 10666 10660 10655 10650 10645 10642 10634 10627 10620 10613 10605 10596 10587 10578 10577 10570 10565
10706 10708 10710 10712 10714 10716 10716 10717 10717 10717 10717 10715 10715 10714 10713 10711 10709 10708 10706 10703 10700 10697 10694 10690 10686 10682 10676 10672 10667 10660 10654 10648 10641 10636 10631 10627 10621 10611 10604 10595 10586 10579 10568 10554 10546 10546 10545
10694 10697 10699 10702 10704 10706 10707 10707 10707 10707 10707 10707 10706 10704 10703 10702 10700 10697 10695 10691 10689 10687 10682 10679 10673 10670 10664 10659 10655 10649 10643 10635 10626 10620 10613 10608 10604 10595 10587 10578 10567 10561 10549 10536 10522 10520 10516
10683 10685 10687 10690 10692 10694 10695 10696 10695 10696 10697 10697 10696 10694 10692 10690 10689 10686 10683 10680 10678 10674 10671 10666 10661 10657 10651 10645 10640 10634 10629 10622 10613 10604 10596 10590 10584 10576 10566 10559 10550 10539 10530 10517 10503 10493 10490
10669 10673 10675 10677 10679 10680 10683 10683 10684 10684 10685 10685 10685 10683 10681 10680 10677 10675 10671 10667 10663 10660 10657 10652 10647 10643 10638 10631 10625 10619 10613 10606 10598 10589 10581 10573 10566 10559 10549 10542 10531 10521 10509 10496 10481 10470 10457
10655 10660 10663 10665 10666 10667 10668 10669 10670 10671 10671 10671 10671 10671 10668 10667 10666 10662 10658 10655 10651 10645 10641 10638 10633 10627 10621 10615 10611 10603 10595 10586 10581 10571 10563 10551 10546 10541 10530 10521 10510 10501 10488 10473 10459 10450 10436
10640 10644 10648 10651 10652 10653 10653 10655 10657 10658 10657 10658 10659 10658 10656 10653 10653 10649 10645 10641 10638 10632 10628 10625 10618 10611 10604 10598 10593 10588 10579 10569 10560 10550 10542 10535 10526 10515 10508 10499 10488 10476 10464 10450 10434 10421 10413
10624 10628 10632 10635 10638 10638 10638 10638 10642 10643 10642 10644 10645 10644 10639 10639 10637 10634 10632 10629 10622 10619 10615 10610 10604 10597 10590 10584 10576 10572 10563 10552 10541 10531 10521 10512 10504 10492 10482 10473 10464 10453 10440 10426 10409 10396 10384
10607 10611 10614 10618 10619 10619 10622 10623 10625 10625 10627 10627 10628 10628 10624 10624 10620 10618 10616 10613 10607 10603 10599 10593 10589 10581 10576 10568 10561 10551 10541 10532 10522 10511 10499 10489 10483 10472 10460 10447 10437 10426 10413 10397 10382 10365 10349
10589 10593 10596 10600 10600 10603 10605 10608 10607 10609 10611 10609 10612 10610 10609 10609 10604 10599 10597 10595 10591 10586 10583 10576 10570 10565 10558 10551 10543 10532 10520 10511 10502 10490 10478 10469 10458 10449 10440 10423 10412 10403 10387 10372 10354 10337 10321
10572 10575 10578 10579 10583 10584 10586 10587 10590 10591 10593 10595 10592 10592 10592 10591 10585 10580 10578 10576 10573 10568 10564 10558 10551 10544 10537 10530 10519 10509 10501 10491 10480 10470 10458 10446 10433 10423 10417 10403 10391 10381 10366 10346 10330 10312 10296
10555 10557 10560 10562 10565 10567 10569 10570 10569 10567 10568 10575 10573 10573 10572 10572 10566 10563 10562 10558 10553 10548 10544 10537 10530 10523 10514 10505 10497 10489 10478 10468 10459 10448 10435 10422 10408 10398 10390 10377 10369 10357 10338 10321 10306 10287 10265
10538 10540 10542 10544 10547 10551 10553 10552 10555 10552 10549 10547 10549 10549 10550 10550 10547 10544 10542 10539 10532 10528 10521 10513 10505 10499 10491 10481 10472 10462 10456 10447 10437 10425 10411 10397 10384 10371 10362 10352 10345 10331 10309 10291 10275 10261 10233
10518 10524 10525 10527 10530 10532 10534 10537 10538 10538 10535 10532 10529 10526 10525 10523 10519 10517 10515 10510 10504 10500 10498 10492 10485 10476 10468 10458 10449 10444 10434 10426 10413 10402 10390 10377 10364 10352 10334 10323 10314 10302 10284 10265 10245 10230 10204
10499 10502 10507 10511 10513 10514 10513 10518 10520 10521 10516 10515 10515 10512 10508 10505 10502 10499 10497 10490 10484 10476 10473 10467 10460 10453 10445 10440 10431 10423 10413 10402 10393 10380 10369 10353 10340 10329 10313 10296 10284 10265 10250 10232 10215 10196 10175
10478 10481 10487 10492 10495 10495 10493 10498 10502 10501 10491 10495 10499 10498 10497 10492 10485 10482 10477 10471 10466 10459 10453 10447 10440 10433 10425 10416 10408 10400 10391 10381 10367 10356 10342 10331 10317 10308 10293 10273 10256 10237 10217 10200 10181 10160 10141
10454 10459 10466 10470 10470 10474 10479 10475 10484 10481 10470 10475 10478 10481 10479 10478 10473 10467 10461 10453 10445 10440 10435 10427 10420 10411 10405 10395 10387 10377 10368 10357 10345 10335 10320 10308 10297 10283 10267 10250 10229 10210 10191 10171 10152 10133 10113